STARLINK-35463 (66463 NORAD) Tracking and Keplerian Element Data

This shows tracking and keplerian element data for the satellite.

Feedback or suggestion? Click here.




ElementValue
Catalog66463
NameSTARLINK-35463
Epoch Orbit665
Epoch Day353.82577293
Epoch Year2025
RAAN30.5418
Inclination43.0008
Eccentricity0.0001284
Argument of Perigee258.7523
Mean Anonmoly101.3189
Mean Motion15.40707547
Decay Rate0.00030183
L11 66463U 25262H 25353.82577293 .00030183 00000+0 72678-3 0 9990
L22 66463 43.0008 30.5418 0001284 258.7523 101.3189 15.40707547 6650



Live tracking and technical data element details for STARLINK-35463 (NORAD 66463). STARLINK-35463 can be tracked NOW for your location showing map with azimuth and elevation plus other details from your city location.







IsCatalogInMostPopularTable: catalog: 66463, numindb: 10
Update: records affected: 1



GetName: 66463 STARLINK-35463

Hit Count: updated at: Sat, 11 Apr 2026 21:49:43 GMT